Regional Weather Roundup
Issued by NWS

Home | Current Version | Previous Version | Graphics & Text | Print | Product List | Glossary On
Versions: 1 2 3 4 5 6 7 8 9 10 11 12 13 14 15 16 17 18 19 20 21 22 23 24 25 26 27
000
ASUS45 KPSR 241610
RWRAZ

ARIZONA HOURLY REGIONAL WEATHER ROUNDUP
NATIONAL WEATHER SERVICE PHOENIX AZ
900 AM MST MON APR 24 2017

NOTE: FAIR INDICATES FEW OR NO CLOUDS BELOW 12,000 FEET WITH NO
SIGNIFICANT WEATHER AND/OR OBSTRUCTIONS TO VISIBILITY.

AZZ001>003-036-241700-
NORTHWEST ARIZONA

CITY           SKY/WX    TMP DP  RH WIND       PRES   REMARKS
BULLHEAD CITY  PTSUNNY   77  25  14 S13       29.69S
KINGMAN        PTSUNNY   69  28  21 SW21      29.78F
$$

AZZ004>008-015-016-018-241700-
NORTH CENTRAL ARIZONA

CITY           SKY/WX    TMP DP  RH WIND       PRES   REMARKS
GRAND CANYON   MOSUNNY   58  26  29 SW21G29   29.90F
WILLIAMS       PTSUNNY   57  19  23 SW21G32   29.92S
PRESCOTT       MOSUNNY   66  20  17 S15       29.90R
FLAGSTAFF      MOSUNNY   57  20  23 SW20      29.94R
PAYSON         SUNNY     66  21  18 S9G17     29.96S
PAGE           CLOUDY    62  30  29 N7        29.76S
$$

AZZ009>014-017-241700-
NORTHEAST ARIZONA

CITY           SKY/WX    TMP DP  RH WIND       PRES   REMARKS
WINSLOW        MOSUNNY   71  20  14 SW22G38   29.86R
SAINT JOHNS    SUNNY     69  19  15 SW16G32   29.91F
WINDOW ROCK    PTSUNNY   63  24  22 SW21G31   29.94S
SHOW LOW       SUNNY     61  18  18 SW25G44   29.95S
$$

AZZ540-542>544-546-548-241700-
GREATER PHOENIX AREA

CITY           SKY/WX    TMP DP  RH WIND       PRES   REMARKS
PHOENIX        MOSUNNY   80  28  15 SE10      29.75R
BUCKEYE        SUNNY     77  30  18 S3        29.77R
GLENDALE       PTSUNNY   81  30  16 CALM      29.78R
LUKE AFB       SUNNY     79  30  16 SW7       29.76R
DEER VALLEY    SUNNY     78  23  13 VRB3      29.77R
SCOTTSDALE     SUNNY     77  26  15 SE7       29.79R
MESA-FALCON    SUNNY    N/A N/A N/A SE14      29.78R
MESA-GATEWAY   MOSUNNY   81  28  15 S14       29.79R
CHANDLER       SUNNY     81  27  13 SE14      29.77R
$$

AZZ539-553-241700-
SOUTHWEST MARICOPA COUNTY AND PINAL COUNTY

CITY           SKY/WX    TMP DP  RH WIND       PRES   REMARKS
CASA GRANDE    SUNNY     80  29  15 S14       29.80R
GILA BEND      SUNNY     84  23  10 SW13      29.75R
$$

AZZ503-504-507>509-241700-
SOUTHEAST ARIZONA

CITY           SKY/WX    TMP DP  RH WIND       PRES   REMARKS
TUCSON         SUNNY     79  22  12 S9        29.89S
DAVIS-MONTHAN  SUNNY     79  21  11 S10       29.88R
RYAN FIELD     SUNNY     82  23  11 S17G26    29.86S
NOGALES        SUNNY     77  22  13 S13       29.96R
SIERRA VISTA   SUNNY     74  14  10 SE8       29.99S
DOUGLAS        SUNNY     74  19  12 S13       29.98R
SAFFORD        SUNNY     76  20  12 S7        29.87S
$$

AZZ532-241700-
SOUTHWEST ARIZONA

CITY           SKY/WX    TMP DP  RH WIND       PRES   REMARKS
YUMA           PTSUNNY   79  30  16 W14       29.74R
$$

CAZ041-043-047-048-061-525>527-560>570-241700-
SOUTHERN CALIFORNIA

CITY           SKY/WX    TMP DP  RH WIND       PRES   REMARKS
DOWNTOWN L.A.  MOSUNNY   65  55  70 CALM      29.93R
L.A. AIRPORT   PTSUNNY   63  54  72 W8        29.94R
SAN DIEGO      CLOUDY    62  52  69 S12       29.96R
BURBANK        MOSUNNY   61  52  72 CALM      29.93R
ONTARIO        CLOUDY    59  52  77 W5        29.93R HAZE
RIVERSIDE      CLOUDY    60  54  80 CALM      29.93R
PALM SPRINGS   SUNNY     75  44  33 NW13      29.75R
EL CENTRO NAS  MOSUNNY   83  32  16 W26G35    29.73S
IMPERIAL       SUNNY     82  41  23 W17G28    29.71R
BLYTHE         SUNNY     76  34  21 SW9       29.73R
NEEDLES        PTSUNNY   78  28  16 CALM      29.71R
$$

NVZ020-UTZ003-241700-
SOUTHERN NEVADA-UTAH

CITY           SKY/WX    TMP DP  RH WIND       PRES   REMARKS
LAS VEGAS      PTSUNNY   70  28  21 S8        29.70R
SALT LAKE CITY LGT RAIN  55  39  54 NW6       29.69S
$$

NMZ009-TXZ055-241700-
NEW MEXICO-WEST TEXAS

CITY           SKY/WX    TMP DP  RH WIND       PRES   REMARKS
ALBUQUERQUE    MOSUNNY   67  26  21 SW15      29.91S
EL PASO        MOSUNNY   79  16   9 W15       29.92S
$$


........................KEY........................
SKY/WX - SKY CONDITION/WEATHER
TMP    - TEMPERATURE IN FAHRENHEIT
DP     - DEW POINT IN FAHRENHEIT
RH     - RELATIVE HUMIDITY IN PERCENT
WIND   - DIRECTION AND SPEED IN MILES PER HOUR (MPH)
VRB    - VARIABLE WIND DIRECTION
PRES   - MEAN SEA LEVEL PRESSURE IN INCHES OF MERCURY
         F - FALLING PRESSURE   R - RISING PRESSURE
         S - STEADY PRESSURE
VSB    - VISIBILITY IN MILES
HX     - HEAT INDEX IN FAHRENHEIT
WCI    - WIND CHILL INDEX IN FAHRENHEIT
TC     - TEMPERATURE IN CELSIUS WHICH IS ALSO KNOWN AS
         TEMPERATURE IN CENTIGRADE
AFB    - AIR FORCE BASE
         LUKE AFB IS LUKE AIR FORCE BASE
         DAVIS-MONTHAN IS DAVIS-MONTHAN AIR FORCE BASE
NAS    - NAVAL AIR STATION
         EL CENTRO NAS IS EL CENTRO NAVAL AIR STATION
N/A    - NOT AVAILABLE





USA.gov is the U.S. government's official web portal to all federal, state and local government web resources and services.